Odessa, TX

9:55 AM CDT on September 24, 2017 (GMT -0500)
Odessa-Schlemeyer

Weather History for KODO - November, 2012

Change the Weather History Date:

Thursday, November 22, 2012

  Actual Average (KMAF) Record (KMAF)
Temperature  
Mean Temperature 66 °F -  
Max Temperature 77 °F 60 °F 81 °F (2003)
Min Temperature 54 °F 36 °F 22 °F (1988)
Growing Degree Days 16 (Base 50)    
Moisture  
Dew Point 44 °F    
Average Humidity 51    
Maximum Humidity 81    
Minimum Humidity 24    
Precipitation  
Precipitation 0.00 in - - ()
Sea Level Pressure  
Sea Level Pressure 29.99 in    
Wind  
Wind Speed 11 mph (SSW)    
Max Wind Speed 16 mph    
Max Gust Speed 25 mph    
Visibility 10 miles    
Events      
Averages and records for this station are not official NWS values.
T = Trace of Precipitation, MM = Missing Value Source: NWS Daily Summary

Daily Weather History Graph

Daily Weather History Graph

Search for Another Location

Airport or City:

Trip Planner

Search our weather history database for the weather conditions in past years. The results will help you decide how hot, cold, wet, or windy it might be!

Date:

Astronomy

Nov. 22, 2012 Rise Set
Actual Time 7:24 AM CST 5:46 PM CST
Civil Twilight 6:58 AM CST 6:12 PM CST
Nautical Twilight 6:28 AM CST 6:42 PM CST
Astronomical Twilight 5:59 AM CST 7:12 PM CST
Moon 2:17 PM CST (11/22) 2:04 AM CST (11/22)
Length of Visible Light 11h 14m
Length of Day
10h 21m
Waxing Gibbous, 71% of the Moon is Illuminated
Nov 22
Waxing Gibbous
Nov 28
Full
Dec 6
Last Quarter
Dec 13
New
Dec 19
First Quarter

Hourly Weather History & Observations

Time (CST) Temp. Dew Point Humidity Pressure Visibility Wind Dir Wind Speed Gust Speed Precip Events Conditions
12:53 AM 62.1 °F 48.0 °F 60% 29.99 in 10.0 mi South 16.1 mph 25.3 mph N/A   Scattered Clouds
1:53 AM 61.0 °F 48.0 °F 62% 29.97 in 10.0 mi South 15.0 mph 21.9 mph N/A   Clear
2:53 AM 60.1 °F 48.0 °F 64% 29.97 in 10.0 mi South 13.8 mph - N/A   Clear
3:53 AM 59.0 °F 48.0 °F 67% 29.96 in 10.0 mi SSE 13.8 mph - N/A   Overcast
4:53 AM 59.0 °F 48.9 °F 69% 29.94 in 10.0 mi SSE 8.1 mph - N/A   Overcast
5:53 AM 57.9 °F 50.0 °F 75% 29.97 in 10.0 mi SSW 9.2 mph - N/A   Clear
6:53 AM 57.9 °F 51.1 °F 78% 29.98 in 10.0 mi South 6.9 mph - N/A   Mostly Cloudy
7:53 AM 57.0 °F 51.1 °F 81% 30.00 in 10.0 mi South 5.8 mph - N/A   Mostly Cloudy
8:53 AM 57.9 °F 51.1 °F 78% 30.01 in 5.0 mi South 8.1 mph - N/A   Haze
9:53 AM 63.0 °F 50.0 °F 63% 30.01 in 10.0 mi South 13.8 mph - N/A   Clear
10:53 AM 68.0 °F 48.0 °F 49% 30.01 in 10.0 mi SW 10.4 mph - N/A   Clear
11:53 AM 72.0 °F 46.0 °F 40% 29.99 in 10.0 mi West 11.5 mph - N/A   Clear
12:53 PM 73.9 °F 45.0 °F 35% 29.96 in 10.0 mi SSW 11.5 mph - N/A   Clear
1:53 PM 75.9 °F 44.1 °F 32% 29.94 in 10.0 mi SW 11.5 mph - N/A   Clear
2:53 PM 75.9 °F 43.0 °F 31% 29.93 in 10.0 mi WSW 9.2 mph - N/A   Clear
3:53 PM 77.0 °F 39.0 °F 25% 29.93 in 10.0 mi West 6.9 mph - N/A   Clear
4:53 PM 77.0 °F 37.0 °F 24% 29.93 in 10.0 mi West 6.9 mph - N/A   Clear
5:53 PM 72.0 °F 37.9 °F 29% 29.95 in 10.0 mi Calm Calm - N/A   Clear
6:53 PM 64.9 °F 37.9 °F 37% 29.99 in 10.0 mi Calm Calm - N/A   Clear
8:53 PM 57.0 °F 37.0 °F 47% 30.04 in 10.0 mi Calm Calm - N/A   Clear
9:53 PM 54.0 °F 37.9 °F 55% 30.06 in 10.0 mi Calm Calm - N/A   Clear
10:53 PM 57.9 °F 35.1 °F 42% 30.08 in 10.0 mi NNW 6.9 mph - N/A   Clear
11:53 PM 57.0 °F 28.0 °F 33% 30.11 in 10.0 mi NE 16.1 mph - N/A   Clear